Firenze / Peretola, Italy

5:37 AM CET on December 08, 2016 (GMT +0100)
Peretola

Weather History for LIRQ - August, 2013

Change the Weather History Date:

Saturday, August 17, 2013

  Actual Average Record
Temperature  
Mean Temperature 78 °F -  
Max Temperature 93 °F 83 °F 98 °F (2012)
Min Temperature 62 °F 60 °F 54 °F (2014)
Cooling Degree Days 12    
Growing Degree Days 28 (Base 50)    
Moisture  
Dew Point 56 °F    
Average Humidity 49    
Maximum Humidity 82    
Minimum Humidity 23    
Precipitation  
Precipitation 0.00 in 0.10 in - ()
Sea Level Pressure  
Sea Level Pressure 30.01 in    
Wind  
Wind Speed 3 mph ()    
Max Wind Speed 12 mph    
Max Gust Speed -    
Visibility 6.2 miles    
Events      
Averages and records for this station are not official NWS values.
T = Trace of Precipitation, MM = Missing Value Source: Averaged Metar Reports

Daily Weather History Graph

Daily Weather History Graph

Search for Another Location

Airport or City:

Trip Planner

Search our weather history database for the weather conditions in past years. The results will help you decide how hot, cold, wet, or windy it might be!

Date:

Astronomy

Aug. 17, 2013 Rise Set
Actual Time 6:21 AM CEST 8:15 PM CEST
Civil Twilight 5:50 AM CEST 8:46 PM CEST
Nautical Twilight 5:12 AM CEST 9:24 PM CEST
Astronomical Twilight 4:31 AM CEST 10:05 PM CEST
Moon 5:19 PM CEST (8/17) 2:03 AM CEST (8/17)
Length of Visible Light 14h 56m
Length of Day
13h 54m
Waxing Gibbous, 82% of the Moon is Illuminated
Aug 17
Waxing Gibbous
Aug 21
Full
Aug 28
Last Quarter
Sep 5
New
Sep 12
First Quarter

Hourly Weather History & Observations

Time (CEST) Temp. Heat Index Dew Point Humidity Pressure Visibility Wind Dir Wind Speed Gust Speed Precip Events Conditions
12:20 AM 73.4 °F - 57.2 °F 57% 30.04 in - Variable 2.3 mph - N/A   Clear
12:50 AM 73.4 °F - 57.2 °F 57% 30.04 in - Variable 2.3 mph - N/A   Clear
1:20 AM 71.6 °F - 55.4 °F 57% 30.04 in - Variable 1.2 mph - N/A   Clear
1:50 AM 71.6 °F - 59.0 °F 64% 30.04 in - Calm Calm - N/A   Clear
2:20 AM 68.0 °F - 59.0 °F 73% 30.04 in - Variable 1.2 mph - N/A   Clear
2:50 AM 66.2 °F - 57.2 °F 73% 30.04 in - Calm Calm - N/A   Clear
3:20 AM 66.2 °F - 57.2 °F 73% 30.04 in - Variable 1.2 mph - N/A   Clear
3:50 AM 66.2 °F - 55.4 °F 68% 30.04 in - ENE 2.3 mph - N/A   Clear
4:20 AM 64.4 °F - 57.2 °F 77% 30.01 in - Variable 1.2 mph - N/A   Clear
4:50 AM 64.4 °F - 57.2 °F 77% 30.01 in - NE 3.5 mph - N/A   Clear
5:20 AM 64.4 °F - 57.2 °F 77% 30.01 in - Calm Calm - N/A   Clear
5:50 AM 62.6 °F - 57.2 °F 82% 30.01 in - Variable 1.2 mph - N/A   Clear
6:20 AM 62.6 °F - 55.4 °F 77% 30.01 in - ENE 2.3 mph - N/A   Clear
6:50 AM 62.6 °F - 55.4 °F 77% 30.04 in - Variable 1.2 mph - N/A   Clear
7:20 AM 66.2 °F - 57.2 °F 73% 30.04 in - Variable 1.2 mph - N/A   Clear
7:50 AM 69.8 °F - 57.2 °F 64% 30.04 in - Variable 1.2 mph - N/A   Clear
8:20 AM 71.6 °F - 57.2 °F 60% 30.04 in - Variable 1.2 mph - N/A   Clear
8:50 AM 73.4 °F - 57.2 °F 57% 30.04 in - Variable 1.2 mph - N/A   Clear
9:20 AM 75.2 °F - 57.2 °F 53% 30.04 in - Variable 1.2 mph - N/A   Clear
9:50 AM 78.8 °F - 57.2 °F 47% 30.04 in - Variable 1.2 mph - N/A   Clear
10:20 AM 80.6 °F 80.8 °F 57.2 °F 45% 30.04 in - Variable 2.3 mph - N/A   Clear
10:50 AM 84.2 °F 83.0 °F 55.4 °F 37% 30.04 in - Variable 1.2 mph - N/A   Clear
11:20 AM 84.2 °F 83.0 °F 55.4 °F 37% 30.01 in - Variable 2.3 mph - N/A   Clear
11:50 AM 87.8 °F 85.7 °F 53.6 °F 31% 30.01 in - Variable 2.3 mph - N/A   Clear
12:20 PM 89.6 °F 87.3 °F 53.6 °F 29% 30.01 in - Variable 2.3 mph - N/A   Clear
12:50 PM 89.6 °F - 51.8 °F 27% 30.01 in - SE 3.5 mph - N/A   Clear
1:20 PM 91.4 °F 89.1 °F 53.6 °F 28% 29.98 in 6.2 mi Variable 4.6 mph - N/A   Partly Cloudy
1:50 PM 91.4 °F - 51.8 °F 26% 29.98 in 6.2 mi Variable 3.5 mph - N/A   Partly Cloudy
2:20 PM 91.4 °F - 51.8 °F 26% 29.98 in 6.2 mi Variable 4.6 mph - N/A   Partly Cloudy
2:50 PM 91.4 °F - 50.0 °F 24% 29.98 in 6.2 mi Variable 5.8 mph - N/A   Partly Cloudy
3:20 PM 91.4 °F - 51.8 °F 26% 29.95 in 6.2 mi Variable 4.6 mph - N/A   Partly Cloudy
3:50 PM 91.4 °F - 51.8 °F 26% 29.95 in 6.2 mi Variable 5.8 mph - N/A   Partly Cloudy
4:20 PM 93.2 °F - 51.8 °F 24% 29.95 in 6.2 mi Variable 8.1 mph - N/A   Partly Cloudy
4:50 PM 93.2 °F - 51.8 °F 24% 29.95 in 6.2 mi West 5.8 mph - N/A   Partly Cloudy
5:20 PM 93.2 °F - 50.0 °F 23% 29.95 in 6.2 mi WSW 8.1 mph - N/A   Partly Cloudy
5:50 PM 91.4 °F 89.1 °F 53.6 °F 28% 29.95 in 6.2 mi WSW 9.2 mph - N/A   Partly Cloudy
6:20 PM 91.4 °F 89.4 °F 55.4 °F 29% 29.95 in 6.2 mi WSW 10.4 mph - N/A   Partly Cloudy
6:50 PM 89.6 °F 87.7 °F 55.4 °F 31% 29.95 in 6.2 mi WSW 11.5 mph - N/A   Partly Cloudy
7:20 PM 87.8 °F 86.1 °F 55.4 °F 33% 29.95 in - WSW 11.5 mph - N/A   Clear
7:50 PM 86.0 °F 84.5 °F 55.4 °F 35% 29.98 in - WSW 10.4 mph - N/A   Clear
8:20 PM 82.4 °F 81.4 °F 53.6 °F 37% 29.98 in - WNW 6.9 mph - N/A   Clear
8:50 PM 82.4 °F 81.7 °F 55.4 °F 39% 29.98 in - WSW 3.5 mph - N/A   Clear
9:20 PM 80.6 °F 80.8 °F 57.2 °F 45% 30.01 in - SSW 8.1 mph - N/A   Clear
9:50 PM 78.8 °F - 59.0 °F 51% 30.01 in - SSW 6.9 mph - N/A   Clear
10:20 PM 77.0 °F - 59.0 °F 54% 30.01 in - NNE 3.5 mph - N/A   Clear
10:50 PM 77.0 °F - 60.8 °F 57% 30.04 in - Variable 2.3 mph - N/A   Clear
11:20 PM 71.6 °F - 59.0 °F 64% 30.04 in - ENE 3.5 mph - N/A   Clear
11:50 PM 69.8 °F - 59.0 °F 68% 30.04 in - East 3.5 mph - N/A   Clear